Location: Pine Creek
(45.5072°N, 110.5649°W)
Time: 17:15:25
(UTC+00:00)

Envisat - Pass Details

Date: 22 January 2022
Orbit: 764 x 765 km, 98.2° (Epoch: 19 May)

Event Time Altitude Azimuth Distance (km) Brightness Sun altitude
Rises 13:26:00 0° 3° (N) 3,241 6.1 -15.2°
Reaches altitude 10° 13:28:36 10° 352° (N) 2,311 5.3 -14.7°
Maximum altitude 13:32:48 27° 296° (WNW) 1,449 3.9 -14.0°
Drops below altitude 10° 13:36:59 10° 240° (WSW) 2,299 5.1 -13.3°
Sets 13:39:35 0° 228° (SW) 3,221 5.9 -12.9°
